Simultaneous Nadir Overpasses (SNOs) Predictions

Prediction of SNOs between LANDSAT-8 and NPP Satellite Orbit:

Table of predicted SNOs for the next 14.0 days since TLE Epoch: 5/18/2024
Index Date (LANDSAT-8) Time (LANDSAT-8) Lat,Lon (LANDSAT-8) SZA (LANDSAT-8 ) Date (NPP) Time (NPP) Lat,Lon (NPP) SZA (NPP ) Distance(km) Time Diff (sec)
1 05/19/2024 21:35:02 -70.42, 32.81 129.69 05/19/2024 21:33:49 -70.47, 32.32 129.61 19.17 73
2 05/19/2024 22:24:32 70.15,-159.93 50.05 05/19/2024 22:24:29 70.16,-159.88 50.06 2.21 3
3 05/19/2024 23:14:02 -70.04, 7.54 130.07 05/19/2024 23:15:11 -70.06, 7.59 130.05 3.14 69
4 05/22/2024 13:51:32 -70.23, 148.42 130.40 05/22/2024 13:50:35 -70.23, 148.48 130.40 2.35 57
5 05/22/2024 14:40:59 70.13, -44.09 49.49 05/22/2024 14:41:19 70.13, -44.05 49.50 1.60 20
6 05/22/2024 15:30:41 -69.36, 122.49 131.26 05/22/2024 15:31:48 -69.35, 124.43 131.32 75.95 67
7 05/25/2024 06:07:59 -70.21, -95.74 130.92 05/25/2024 06:07:26 -70.22, -95.71 130.90 2.01 33
8 05/25/2024 06:57:26 70.09, 71.75 48.97 05/25/2024 06:58:10 70.12, 71.74 49.00 3.55 44
9 05/27/2024 21:34:51 70.49,-147.07 48.92 05/27/2024 21:33:39 70.54,-147.75 49.00 26.03 72
10 05/27/2024 22:24:25 -70.17, 20.10 131.40 05/27/2024 22:24:16 -70.17, 20.15 131.40 1.96 9
11 05/27/2024 23:13:52 70.05,-172.42 48.48 05/27/2024 23:15:00 70.08,-172.40 48.50 3.24 68
12 05/30/2024 13:51:20 70.23, -31.56 48.26 05/30/2024 13:50:24 70.25, -31.50 48.29 3.47 56
13 05/30/2024 14:40:50 -70.12, 135.92 131.85 05/30/2024 14:41:06 -70.14, 135.98 131.83 3.00 16
14 05/30/2024 15:30:29 69.34, -57.50 47.39 05/30/2024 15:31:36 69.31, -55.48 47.31 79.47 67



Historial Predications of SNOs between LANDSAT-8 and NPP
